| time (UTC) | temp C | wind direction | speed KPH | gust KPH | rain 1hr cm | rain 24hr cm | rain mn cm | humidity % | barometer mb |
| 20260901081606 | 26 | 0 | 0.0 | 0.0 | 0.00 | 0.05 | 0.00 | 88 | 1015.3 |
| 20260901080122 | 26 | 0 | 0.0 | 0.0 | 0.00 | 0.05 | 0.00 | 87 | 1015.3 |
| 20260901074602 | 26 | 0 | 0.0 | 0.0 | 0.00 | 0.05 | 0.00 | 87 | 1015.4 |
| 20260901073104 | 26 | 0 | 0.0 | 0.0 | 0.00 | 0.05 | 0.00 | 87 | 1015.3 |
| 20260901071603 | 26 | 0 | 0.0 | 0.0 | 0.00 | 0.05 | 0.00 | 87 | 1015.7 |
| 20260901070110 | 26 | 0 | 0.0 | 0.0 | 0.00 | 0.05 | 0.00 | 86 | 1015.6 |
| 20260901064602 | 26 | 0 | 0.0 | 0.0 | 0.00 | 0.05 | 0.00 | 86 | 1015.6 |
| 20260901063105 | 27 | 0 | 0.0 | 0.0 | 0.00 | 0.05 | 0.00 | 86 | 1015.7 |
| 20260901061604 | 27 | 0 | 0.0 | 0.0 | 0.00 | 0.05 | 0.00 | 86 | 1015.8 |
| 20260901060115 | 27 | 0 | 0.0 | 0.0 | 0.00 | 0.05 | 0.00 | 86 | 1015.8 |
| 20260901054606 | 27 | 0 | 0.0 | 0.0 | 0.00 | 0.05 | 0.00 | 85 | 1015.8 |
| 20260901053121 | 27 | 0 | 0.0 | 3.2 | 0.00 | 0.05 | 0.00 | 85 | 1015.9 |
| 20260901051610 | 27 | 0 | 0.0 | 0.0 | 0.00 | 0.05 | 0.00 | 85 | 1015.8 |
| 20260901050104 | 28 | 0 | 0.0 | 1.6 | 0.00 | 0.05 | 0.00 | 85 | 1015.7 |
| 20260901044624 | 28 | 0 | 0.0 | 0.0 | 0.00 | 0.05 | 0.05 | 85 | 1015.7 |
| 20260901043105 | 28 | 0 | 0.0 | 3.2 | 0.00 | 0.05 | 0.05 | 85 | 1015.7 |
| 20260901041605 | 28 | 272 | 0.0 | 0.0 | 0.00 | 0.05 | 0.05 | 85 | 1015.9 |
| 20260901040115 | 28 | 0 | 0.0 | 0.0 | 0.00 | 0.05 | 0.05 | 85 | 1015.8 |
| 20260901034612 | 28 | 0 | 0.0 | 0.0 | 0.00 | 0.05 | 0.05 | 85 | 1015.5 |
| 20260901033103 | 28 | 0 | 0.0 | 0.0 | 0.00 | 0.05 | 0.05 | 84 | 1015.6 |
| 20260901031607 | 28 | 0 | 0.0 | 0.0 | 0.00 | 0.05 | 0.05 | 84 | 1015.6 |
| 20260901030103 | 28 | 0 | 0.0 | 0.0 | 0.00 | 0.05 | 0.05 | 83 | 1015.4 |
| 20260901024607 | 28 | 0 | 0.0 | 0.0 | 0.00 | 0.05 | 0.05 | 83 | 1015.1 |
| 20260901023109 | 29 | 0 | 0.0 | 0.0 | 0.00 | 0.05 | 0.05 | 82 | 1014.9 |
| 20260901021608 | 29 | 0 | 0.0 | 0.0 | 0.00 | 0.05 | 0.05 | 82 | 1014.8 |
| 20260901020106 | 29 | 277 | 0.0 | 0.0 | 0.00 | 0.05 | 0.05 | 82 | 1014.8 |
| 20260901014606 | 29 | 0 | 0.0 | 0.0 | 0.00 | 0.05 | 0.05 | 81 | 1014.5 |
| 20260901013109 | 30 | 0 | 0.0 | 0.0 | 0.00 | 0.05 | 0.05 | 80 | 1014.2 |
| 20260901011607 | 30 | 0 | 0.0 | 0.0 | 0.00 | 0.05 | 0.05 | 79 | 1014.3 |
| 20260901010109 | 30 | 0 | 0.0 | 0.0 | 0.00 | 0.05 | 0.05 | 78 | 1014.4 |
| 20260901004614 | 31 | 0 | 0.0 | 1.6 | 0.00 | 0.05 | 0.05 | 77 | 1014.4 |
| 20260901003107 | 31 | 252 | 0.0 | 3.2 | 0.00 | 0.05 | 0.05 | 76 | 1014.2 |
| 20260901001604 | 31 | 0 | 0.0 | 9.7 | 0.00 | 0.05 | 0.05 | 75 | 1014.3 |
| 20260831234606 | 32 | 237 | 0.0 | 6.4 | 0.00 | 0.05 | 0.05 | 72 | 1014.2 |
| 20260831233103 | 32 | 0 | 0.0 | 8.0 | 0.00 | 0.05 | 0.05 | 73 | 1014.2 |
| 20260831231601 | 32 | 0 | 0.0 | 6.4 | 0.00 | 0.05 | 0.05 | 74 | 1014.3 |
| 20260831230115 | 32 | 0 | 0.0 | 11.3 | 0.03 | 0.05 | 0.05 | 74 | 1014.4 |
| 20260831224603 | 32 | 249 | 1.6 | 4.8 | 0.03 | 0.05 | 0.05 | 73 | 1014.4 |
| 20260831223102 | 32 | 0 | 0.0 | 11.3 | 0.03 | 0.05 | 0.05 | 74 | 1014.5 |
| 20260831221607 | 32 | 0 | 0.0 | 6.4 | 0.03 | 0.05 | 0.05 | 74 | 1014.6 |
| 20260831220133 | 32 | 254 | 0.0 | 9.7 | 0.00 | 0.03 | 0.03 | 74 | 1014.5 |
| 20260831214603 | 31 | 254 | 0.0 | 9.7 | 0.03 | 0.03 | 0.03 | 78 | 1014.7 |
| 20260831213120 | 31 | 260 | 0.0 | 4.8 | 0.03 | 0.03 | 0.03 | 82 | 1014.9 |
| 20260831211616 | 30 | 0 | 0.0 | 4.8 | 0.03 | 0.03 | 0.03 | 82 | 1015.2 |
| 20260831210106 | 31 | 0 | 0.0 | 4.8 | 0.03 | 0.03 | 0.03 | 81 | 1015.5 |
| 20260831204601 | 31 | 0 | 0.0 | 8.0 | 0.00 | 0.00 | 0.00 | 76 | 1015.8 |
| 20260831203122 | 31 | 0 | 1.6 | 8.0 | 0.00 | 0.00 | 0.00 | 74 | 1015.6 |
| 20260831201603 | 31 | 246 | 1.6 | 6.4 | 0.00 | 0.00 | 0.00 | 76 | 1015.6 |
| 20260831194606 | 31 | 0 | 0.0 | 9.7 | 0.00 | 0.00 | 0.00 | 78 | 1016.0 |
| 20260831193102 | 31 | 241 | 1.6 | 11.3 | 0.00 | 0.00 | 0.00 | 76 | 1015.9 |
| 20260831191602 | 32 | 204 | 1.6 | 11.3 | 0.00 | 0.00 | 0.00 | 73 | 1016.1 |
| 20260831190110 | 33 | 261 | 1.6 | 20.9 | 0.00 | 0.00 | 0.00 | 70 | 1016.1 |
| 20260831184606 | 33 | 0 | 1.6 | 6.4 | 0.00 | 0.00 | 0.00 | 70 | 1016.2 |
| 20260831183102 | 33 | 0 | 0.0 | 4.8 | 0.00 | 0.00 | 0.00 | 67 | 1016.3 |
| 20260831181602 | 32 | 0 | 0.0 | 1.6 | 0.00 | 0.00 | 0.00 | 71 | 1016.6 |
| 20260831180110 | 32 | 0 | 0.0 | 4.8 | 0.00 | 0.00 | 0.00 | 70 | 1016.7 |
| 20260831174605 | 32 | 0 | 0.0 | 3.2 | 0.00 | 0.00 | 0.00 | 72 | 1017.0 |
| 20260831173104 | 32 | 0 | 0.0 | 6.4 | 0.00 | 0.00 | 0.00 | 72 | 1017.1 |
| 20260831171604 | 32 | 0 | 0.0 | 3.2 | 0.00 | 0.00 | 0.00 | 73 | 1017.3 |
| 20260831170105 | 33 | 0 | 0.0 | 4.8 | 0.00 | 0.00 | 0.00 | 69 | 1017.4 |
| 20260831164630 | 32 | 0 | 0.0 | 4.8 | 0.00 | 0.00 | 0.00 | 71 | 1017.3 |
| 20260831163105 | 32 | 0 | 0.0 | 4.8 | 0.00 | 0.00 | 0.00 | 72 | 1017.4 |
| 20260831161614 | 32 | 58 | 0.0 | 4.8 | 0.00 | 0.00 | 0.00 | 74 | 1017.4 |
| 20260831160107 | 32 | 0 | 0.0 | 4.8 | 0.00 | 0.00 | 0.00 | 75 | 1017.6 |
| 20260831154635 | 32 | 47 | 0.0 | 3.2 | 0.00 | 0.00 | 0.00 | 77 | 1017.4 |
| 20260831153105 | 31 | 0 | 0.0 | 3.2 | 0.00 | 0.00 | 0.00 | 79 | 1017.4 |
| 20260831151614 | 30 | 0 | 0.0 | 6.4 | 0.00 | 0.00 | 0.00 | 83 | 1017.5 |
| 20260831150104 | 28 | 0 | 0.0 | 6.4 | 0.00 | 0.00 | 0.00 | 84 | 1017.7 |
| 20260831144615 | 28 | 59 | 0.0 | 3.2 | 0.00 | 0.00 | 0.00 | 85 | 1017.6 |
| 20260831143114 | 27 | 0 | 0.0 | 1.6 | 0.00 | 0.00 | 0.00 | 86 | 1017.5 |
| 20260831141619 | 27 | 0 | 0.0 | 0.0 | 0.00 | 0.00 | 0.00 | 87 | 1017.4 |
| 20260831140101 | 26 | 0 | 0.0 | 3.2 | 0.00 | 0.00 | 0.00 | 88 | 1017.3 |
| 20260831134604 | 26 | 0 | 0.0 | 3.2 | 0.00 | 0.00 | 0.00 | 88 | 1017.2 |
| 20260831133104 | 26 | 0 | 0.0 | 1.6 | 0.00 | 0.00 | 0.00 | 88 | 1017.2 |
| 20260831132532 | 26 | 63 | 0.0 | 3.2 | 0.00 | 0.00 | 0.00 | 89 | 1016.8 |
| 20260831131605 | 26 | 0 | 0.0 | 1.6 | 0.00 | 0.00 | 0.00 | 88 | 1017.0 |
| 20260831124601 | 25 | 225 | 0.0 | 3.2 | 0.00 | 0.00 | 0.00 | 89 | 1016.6 |
| 20260831123103 | 25 | 225 | 0.0 | 3.2 | 0.00 | 0.00 | 0.00 | 90 | 1016.2 |
| 20260831121605 | 25 | 0 | 0.0 | 0.0 | 0.00 | 0.00 | 0.00 | 90 | 1016.0 |
| 20260831120112 | 25 | 0 | 0.0 | 0.0 | 0.00 | 0.00 | 0.00 | 90 | 1015.9 |
| 20260831114604 | 25 | 0 | 0.0 | 0.0 | 0.00 | 0.00 | 0.00 | 90 | 1015.6 |
| 20260831113108 | 25 | 0 | 0.0 | 0.0 | 0.00 | 0.00 | 0.00 | 90 | 1015.8 |
| 20260831111609 | 25 | 0 | 0.0 | 0.0 | 0.00 | 0.00 | 0.00 | 90 | 1015.7 |
| 20260831104607 | 25 | 0 | 0.0 | 0.0 | 0.00 | 0.00 | 0.00 | 89 | 1015.5 |
| 20260831103103 | 25 | 0 | 0.0 | 0.0 | 0.00 | 0.00 | 0.00 | 89 | 1015.7 |
| 20260831101559 | 25 | 0 | 0.0 | 0.0 | 0.00 | 0.00 | 0.00 | 89 | 1015.7 |
| 20260831100106 | 25 | 0 | 0.0 | 0.0 | 0.00 | 0.00 | 0.00 | 89 | 1015.7 |
| 20260831094607 | 25 | 0 | 0.0 | 0.0 | 0.00 | 0.00 | 0.00 | 89 | 1015.6 |
| 20260831093107 | 25 | 0 | 0.0 | 0.0 | 0.00 | 0.00 | 0.00 | 89 | 1015.5 |
| 20260831091607 | 25 | 0 | 0.0 | 0.0 | 0.00 | 0.00 | 0.00 | 88 | 1015.5 |
| 20260831084611 | 25 | 0 | 0.0 | 0.0 | 0.00 | 0.00 | 0.00 | 88 | 1015.4 |
| 20260831083113 | 26 | 0 | 0.0 | 0.0 | 0.00 | 0.00 | 0.00 | 88 | 1015.5 |